• In Uzbekistan
  • List of Countries
  • For 7 days
  • Water Temperature
  • Satellite Maps
  • Weather Map
  • Weather Widgets
  • user-avatar
    Login

    Hourly Weather Kitzbuhel

    Today, 18 August, Friday

    Time Temperature Precipitation Wind Pressure Humidity
    00:00 +16°C° 0 mm 1 mps 680 mmHg 86%
    01:00 +16°C° 0 mm 2 mps 680 mmHg 86%
    02:00 +16°C° 0 mm 1 mps 680 mmHg 86%
    03:00 +15°C° 0 mm 1 mps 680 mmHg 87%
    04:00 +15°C° 0 mm 1 mps 680 mmHg 87%
    05:00 +16°C° 0 mm 1 mps 680 mmHg 85%
    06:00 +18°C° 0 mm 1 mps 681 mmHg 83%
    07:00 +20°C° 0 mm 1 mps 681 mmHg 79%
    08:00 +22°C° 0 mm 1 mps 681 mmHg 71%
    09:00 +24°C° 0 mm 1 mps 681 mmHg 63%
    10:00 +27°C° 0 mm 1 mps 681 mmHg 55%
    11:00 +27°C° 0 mm 1 mps 681 mmHg 53%
    12:00 +28°C° 0 mm 2 mps 681 mmHg 50%
    13:00 +29°C° 0 mm 2 mps 681 mmHg 50%
    14:00 +28°C° 0.1 mm 2 mps 680 mmHg 53%
    15:00 +28°C° 0.1 mm 2 mps 680 mmHg 56%
    16:00 +27°C° 0.1 mm 2 mps 679 mmHg 59%
    17:00 +25°C° 0.3 mm 2 mps 679 mmHg 68%
    18:00 +24°C° 0.3 mm 2 mps 678 mmHg 76%
    19:00 +22°C° 0.3 mm 1 mps 678 mmHg 85%
    20:00 +20°C° 1 mm 2 mps 678 mmHg 88%
    21:00 +18°C° 1 mm 2 mps 678 mmHg 91%
    22:00 +17°C° 1 mm 3 mps 678 mmHg 94%
    23:00 +17°C° 0.9 mm 2 mps 678 mmHg 95%

    Tomorrow, 19 August, Saturday

    Time Temperature Precipitation Wind Pressure Humidity
    00:00 +17°C° 0.9 mm 2 mps 678 mmHg 97%
    01:00 +16°C° 0.9 mm 1 mps 679 mmHg 98%
    02:00 +16°C° 2.7 mm 1 mps 678 mmHg 98%
    03:00 +16°C° 2.7 mm 2 mps 678 mmHg 98%
    04:00 +16°C° 2.7 mm 2 mps 678 mmHg 98%
    05:00 +15°C° 4.6 mm 2 mps 678 mmHg 98%
    06:00 +15°C° 4.6 mm 1 mps 679 mmHg 98%
    07:00 +14°C° 4.6 mm 1 mps 679 mmHg 98%
    08:00 +14°C° 2.2 mm 1 mps 679 mmHg 97%
    09:00 +14°C° 2.2 mm 1 mps 679 mmHg 97%
    10:00 +14°C° 2.2 mm 1 mps 679 mmHg 96%
    11:00 +13°C° 2 mm 1 mps 679 mmHg 96%
    12:00 +13°C° 2 mm 1 mps 679 mmHg 96%
    13:00 +13°C° 2 mm 2 mps 679 mmHg 96%
    14:00 +13°C° 1.7 mm 2 mps 679 mmHg 96%
    15:00 +13°C° 1.7 mm 1 mps 679 mmHg 96%
    16:00 +13°C° 1.7 mm 1 mps 679 mmHg 95%
    17:00 +13°C° 1.1 mm 1 mps 679 mmHg 95%
    18:00 +12°C° 1.1 mm 1 mps 680 mmHg 96%
    19:00 +12°C° 1.1 mm 1 mps 680 mmHg 96%
    20:00 +12°C° 0.3 mm 1 mps 680 mmHg 95%
    21:00 +12°C° 0.3 mm 1 mps 680 mmHg 95%
    22:00 +11°C° 0.3 mm 1 mps 680 mmHg 95%
    23:00 +11°C° 0 mm 1 mps 680 mmHg 95%

    Day after tomorrow, 20 August, Sunday

    Time Temperature Precipitation Wind Pressure Humidity
    00:00 +10°C° 0 mm 1 mps 680 mmHg 95%
    01:00 +10°C° 0 mm 1 mps 680 mmHg 95%
    02:00 +10°C° 0.1 mm 1 mps 680 mmHg 96%
    03:00 +10°C° 0.1 mm 1 mps 680 mmHg 96%
    04:00 +10°C° 0.1 mm 1 mps 680 mmHg 96%
    05:00 +11°C° 0.2 mm 1 mps 681 mmHg 96%
    06:00 +11°C° 0.2 mm 1 mps 681 mmHg 95%
    07:00 +11°C° 0.2 mm 1 mps 681 mmHg 95%
    08:00 +13°C° 0.2 mm 1 mps 681 mmHg 89%
    09:00 +14°C° 0.2 mm 1 mps 681 mmHg 84%
    10:00 +15°C° 0.2 mm 1 mps 682 mmHg 79%
    11:00 +16°C° 0.1 mm 1 mps 682 mmHg 73%
    12:00 +17°C° 0.1 mm 2 mps 682 mmHg 67%
    13:00 +17°C° 0.1 mm 2 mps 682 mmHg 61%
    14:00 +17°C° 0.1 mm 2 mps 682 mmHg 61%
    15:00 +17°C° 0.1 mm 2 mps 682 mmHg 61%
    16:00 +17°C° 0.1 mm 2 mps 682 mmHg 61%
    17:00 +16°C° 0 mm 2 mps 681 mmHg 70%
    18:00 +14°C° 0 mm 1 mps 681 mmHg 80%
    19:00 +12°C° 0 mm 1 mps 681 mmHg 89%
    20:00 +11°C° 0 mm 1 mps 681 mmHg 91%
    21:00 +11°C° 0 mm 1 mps 682 mmHg 93%
    22:00 +10°C° 0 mm 1 mps 682 mmHg 94%
    23:00 +10°C° 0 mm 1 mps 682 mmHg 94%

    21 August, Monday

    Time Temperature Precipitation Wind Pressure Humidity
    00:00 +9°C° 0 mm 1 mps 681 mmHg 94%
    01:00 +9°C° 0 mm 1 mps 681 mmHg 94%
    02:00 +9°C° 0 mm 1 mps 681 mmHg 93%
    03:00 +8°C° 0 mm 1 mps 681 mmHg 91%
    04:00 +8°C° 0 mm 1 mps 681 mmHg 90%
    05:00 +9°C° 0 mm 1 mps 681 mmHg 87%
    06:00 +10°C° 0 mm 1 mps 682 mmHg 84%
    07:00 +11°C° 0 mm 1 mps 682 mmHg 81%
    08:00 +13°C° 0 mm 1 mps 682 mmHg 72%
    09:00 +15°C° 0 mm 1 mps 682 mmHg 63%
    10:00 +17°C° 0 mm 2 mps 683 mmHg 54%
    11:00 +18°C° 0 mm 2 mps 683 mmHg 50%
    12:00 +19°C° 0 mm 2 mps 683 mmHg 47%
    13:00 +20°C° 0 mm 2 mps 682 mmHg 43%
    14:00 +20°C° 0 mm 2 mps 682 mmHg 45%
    15:00 +19°C° 0 mm 2 mps 682 mmHg 47%
    16:00 +19°C° 0 mm 2 mps 682 mmHg 49%
    17:00 +17°C° 0 mm 2 mps 681 mmHg 60%
    18:00 +15°C° 0 mm 1 mps 681 mmHg 72%
    19:00 +13°C° 0 mm 1 mps 681 mmHg 84%
    20:00 +12°C° 0 mm 1 mps 681 mmHg 87%
    21:00 +11°C° 0 mm 1 mps 681 mmHg 90%
    22:00 +10°C° 0 mm 1 mps 681 mmHg 93%
    23:00 +9°C° 0 mm 1 mps 681 mmHg 91%

    22 August, Tuesday

    Time Temperature Precipitation Wind Pressure Humidity
    00:00 +9°C° 0 mm 1 mps 681 mmHg 89%
    01:00 +9°C° 0 mm 1 mps 681 mmHg 88%
    02:00 +8°C° 0 mm 1 mps 681 mmHg 85%
    03:00 +8°C° 0 mm 1 mps 681 mmHg 82%
    04:00 +8°C° 0 mm 1 mps 680 mmHg 79%
    05:00 +9°C° 0 mm 1 mps 681 mmHg 74%
    06:00 +11°C° 0 mm 1 mps 681 mmHg 70%
    07:00 +12°C° 0 mm 1 mps 681 mmHg 65%
    08:00 +14°C° 0 mm 1 mps 682 mmHg 57%
    09:00 +18°C° 0 mm 1 mps 682 mmHg 49%
    10:00 +20°C° 0 mm 1 mps 682 mmHg 41%
    11:00 +21°C° 0 mm 1 mps 682 mmHg 39%
    12:00 +22°C° 0 mm 1 mps 682 mmHg 37%
    13:00 +23°C° 0 mm 2 mps 682 mmHg 35%
    14:00 +23°C° 0 mm 2 mps 681 mmHg 38%
    15:00 +23°C° 0 mm 2 mps 681 mmHg 40%
    16:00 +21°C° 0 mm 2 mps 681 mmHg 43%
    17:00 +20°C° 0 mm 1 mps 680 mmHg 56%
    18:00 +16°C° 0 mm 1 mps 680 mmHg 69%
    19:00 +14°C° 0 mm 1 mps 679 mmHg 82%
    20:00 +13°C° 0 mm 1 mps 679 mmHg 82%
    21:00 +12°C° 0 mm 1 mps 679 mmHg 82%
    22:00 +11°C° 0 mm 1 mps 680 mmHg 83%
    23:00 +11°C° 0 mm 1 mps 679 mmHg 80%

    23 August, Wednesday

    Time Temperature Precipitation Wind Pressure Humidity
    00:00 +11°C° 0 mm 1 mps 679 mmHg 78%
    01:00 +11°C° 0 mm 1 mps 679 mmHg 75%
    02:00 +11°C° 0 mm 1 mps 679 mmHg 73%
    03:00 +10°C° 0 mm 1 mps 679 mmHg 71%
    04:00 +10°C° 0 mm 1 mps 679 mmHg 69%
    05:00 +12°C° 0 mm 1 mps 679 mmHg 65%
    06:00 +13°C° 0 mm 1 mps 679 mmHg 61%
    07:00 +14°C° 0 mm 1 mps 680 mmHg 57%
    08:00 +18°C° 0 mm 1 mps 680 mmHg 50%
    09:00 +21°C° 0 mm 1 mps 681 mmHg 43%
    10:00 +24°C° 0 mm 1 mps 681 mmHg 36%
    11:00 +25°C° 0 mm 1 mps 681 mmHg 35%
    12:00 +26°C° 0 mm 1 mps 681 mmHg 34%
    13:00 +26°C° 0 mm 1 mps 681 mmHg 33%
    14:00 +26°C° 0 mm 1 mps 681 mmHg 36%
    15:00 +26°C° 0 mm 1 mps 681 mmHg 39%
    16:00 +25°C° 0 mm 2 mps 681 mmHg 41%
    17:00 +23°C° 0 mm 1 mps 680 mmHg 53%
    18:00 +20°C° 0 mm 1 mps 680 mmHg 64%
    19:00 +18°C° 0 mm 1 mps 679 mmHg 76%
    20:00 +16°C° 0 mm 1 mps 680 mmHg 75%
    21:00 +15°C° 0 mm 1 mps 680 mmHg 75%
    22:00 +14°C° 0 mm 1 mps 680 mmHg 75%
    23:00 +14°C° 0 mm 1 mps 680 mmHg 73%
    Show more